[[{"header":{"parameterUnit":"m.s-1","parameterCategory":1,"la1":30.2991,"la2":30.254,"lo1":-89.0895,"lo2":-89.0444,"dy":0.0017,"dx":0.0017,"nx":28,"ny":28,"refTime":"2024-08-26T21:00:00:Z","depth":0,"parameterNumber":2,"parameterNumberName":"U-component_of_WINDS"},"data":[0,0,0,0,0,0,0,0,0,0,0,0,0,0,0,0,0,0,0,0,0,0,0,0,0,0,0,0,0,0,0,0,0,0,0,0,0,0,0,0,0,0,0,0,0,0,0,0,0,0,0,0,0,0,0,0,0,0,-2.3336,-2.3336,0,-2.3334,-2.3334,-2.3334,-2.3301,-2.33,-2.3299,-2.3299,-2.3297,-2.3297,-2.3298,0,0,0,0,0,0,0,0,0,0,0,0,0,-2.3311,-2.3312,-2.3336,-2.3336,-2.3336,-2.3334,-2.3334,-2.3334,-2.3301,-2.33,-2.3299,-2.3298,-2.3297,-2.3297,-2.3298,0,0,0,0,0,0,0,0,0,0,0,0,0,-2.3317,-2.3312,-2.3336,-2.3319,-2.3318,-2.3334,-2.3334,-2.3334,-2.3301,-2.33,-2.3299,-2.3298,-2.3296,-2.3297,-2.3298,-2.333,0,0,-2.3302,-2.3302,0,0,0,0,0,0,0,0,-2.3317,-2.3318,-2.3322,-2.332,-2.3319,-2.3316,-2.3325,-2.3333,-2.3302,-2.3308,-2.3298,-2.3297,-2.3304,-2.3305,-2.3307,-2.333,-2.333,-2.3302,-2.3302,-2.3303,-2.3303,0,0,0,0,0,0,0,-2.3316,-2.3318,-2.3335,-2.3322,-2.332,-2.3312,-2.3311,-2.3326,-2.3313,-2.3307,-2.3305,-2.3305,-2.3303,-2.3306,-2.3307,-2.333,-2.3302,-2.3303,-2.3303,-2.3304,-2.338,-2.3381,0,0,0,0,0,0,-2.3318,-2.3318,-2.3335,-2.3335,-2.3315,-2.3313,-2.3313,-2.3318,-2.3313,-2.3311,-2.3306,-2.3303,-2.3305,-2.3306,-2.3307,-2.3343,-2.3303,-2.3304,-2.3305,-2.3378,-2.338,-2.3381,0,0,0,0,0,0,-2.3318,-2.332,-2.3335,-2.3326,-2.3327,-2.3315,-2.3322,-2.3319,-2.3322,-2.3312,-2.3309,-2.3311,-2.3304,-2.3305,-2.3325,-2.3343,-2.3304,-2.3305,-2.3377,-2.3379,-2.3381,-2.3418,0,0,0,0,0,0,-2.3317,-2.332,-2.3332,-2.3326,-2.3328,-2.3353,-2.3323,-2.332,-2.3324,-2.332,-2.3316,-2.3314,-2.3303,-2.3323,-2.3326,-2.3344,-2.3306,-2.3375,-2.3378,-2.338,-2.3415,-2.3421,-2.3426,0,0,0,0,0,-2.3317,-2.3342,-2.3333,-2.3335,-2.3342,-2.3354,-2.3355,-2.3341,-2.3325,-2.3337,-2.3331,-2.3314,-2.3341,-2.3325,-2.3328,-2.3347,-2.3374,-2.3377,-2.338,-2.3412,-2.3419,-2.3426,0,0,0,0,0,0,-2.335,-2.3341,-2.333,-2.3355,-2.3356,-2.3348,-2.3363,-2.3349,-2.3354,-2.3351,-2.3334,-2.3334,-2.3356,-2.3353,-2.3336,-2.3377,-2.3354,-2.3358,-2.3378,-2.3385,-2.339,-2.339,-2.3307,0,0,0,0,0,-2.3361,-2.3371,-2.3363,-2.3385,-2.3386,-2.3375,-2.3379,-2.3369,-2.3369,-2.3369,-2.3364,-2.3365,-2.3373,-2.3379,-2.3386,-2.3415,-2.3413,-2.3429,-2.3434,-2.3439,-2.3442,-2.3457,-2.3464,-2.3391,-2.3391,-2.3391,0,0,-2.3382,-2.3378,-2.3386,-2.3392,-2.3391,-2.3402,-2.3375,-2.3388,-2.3396,-2.3371,-2.3389,-2.3386,-2.3385,-2.341,-2.342,-2.3408,-2.3462,-2.3443,-2.3446,-2.3447,-2.3461,-2.3468,-2.3474,-2.3393,-2.3393,-2.3393,0,0,-2.3426,-2.3425,-2.3444,-2.3444,-2.3443,-2.3435,-2.344,-2.3435,-2.3432,-2.345,-2.3431,-2.3441,-2.3456,-2.3456,-2.3459,-2.3505,-2.349,-2.3508,-2.3536,-2.3551,-2.3557,-2.3562,-2.3578,-2.3584,-2.3511,-2.3511,-2.3511,0,-2.3453,-2.3469,-2.3455,-2.3469,-2.3473,-2.3451,-2.3469,-2.347,-2.3472,-2.3475,-2.3462,-2.348,-2.3478,-2.3502,-2.3514,-2.3517,-2.3521,-2.3508,-2.3557,-2.3562,-2.3566,-2.3582,-2.3588,-2.3513,-2.3513,-2.3513,-2.3513,0,-2.3502,-2.3514,-2.3529,-2.3531,-2.3536,-2.3553,-2.3541,-2.3548,-2.3538,-2.3532,-2.3551,-2.3548,-2.3555,-2.356,-2.355,-2.3583,-2.3575,-2.356,-2.3536,-2.3576,-2.359,-2.3595,-2.3516,-2.3516,-2.3515,-2.3515,0,0,-2.3566,-2.3561,-2.3567,-2.3568,-2.3566,-2.3575,-2.3591,-2.3597,-2.3604,-2.3606,-2.3619,-2.3633,-2.3619,-2.3621,-2.3611,-2.3624,-2.3661,-2.3608,-2.3607,-2.3617,-2.3697,-2.3708,-2.3715,-2.3652,-2.3653,-2.3653,-2.3697,0,-2.3609,-2.3636,-2.3624,-2.3652,-2.3662,-2.3642,-2.3656,-2.3657,-2.3652,-2.366,-2.3655,-2.3665,-2.3646,-2.3647,-2.3659,-2.3654,-2.3677,-2.3651,-2.3663,-2.3664,-2.3663,-2.3723,-2.3734,-2.3775,-2.3703,-2.3704,-2.3704,0,-2.3662,-2.3667,-2.3696,-2.3693,-2.3697,-2.3709,-2.3714,-2.3723,-2.3724,-2.3719,-2.3723,-2.371,-2.3726,-2.3703,-2.3724,-2.3707,-2.3712,-2.371,-2.3711,-2.3711,-2.3686,-2.3724,-2.3788,-2.3794,-2.3713,-2.3712,-2.3711,0,-2.3706,-2.372,-2.3739,-2.374,-2.3737,-2.3746,-2.3746,-2.3745,-2.375,-2.3755,-2.3757,-2.3764,-2.3768,-2.3773,-2.3763,-2.3747,-2.3786,-2.3762,-2.3783,-2.3783,-2.3791,-2.379,-2.3856,-2.3795,-2.3795,-2.3795,-2.3795,0,-2.3754,-2.3773,-2.3758,-2.377,-2.3791,-2.3777,-2.3798,-2.3795,-2.3794,-2.3805,-2.3789,-2.3799,-2.3785,-2.3795,-2.3787,-2.3806,-2.3808,-2.3805,-2.3802,-2.3806,-2.3806,-2.3808,-2.3804,-2.3796,-2.3796,-2.3796,-2.3795,0,-2.3806,-2.3797,-2.3817,-2.3812,-2.3812,-2.3827,-2.3823,-2.3834,-2.3829,-2.3843,-2.3845,-2.3836,-2.3847,-2.3837,-2.3847,-2.3842,-2.3867,-2.3861,-2.3867,-2.3865,-2.3886,-2.3884,-2.3955,-2.3963,-2.3897,-2.3898,-2.3898,0,-2.3837,-2.3851,-2.3848,-2.3854,-2.3855,-2.3865,-2.387,-2.3858,-2.3863,-2.3866,-2.3876,-2.3885,-2.3892,-2.391,-2.3904,-2.3912,-2.3905,-2.393,-2.3906,-2.3909,-2.3905,-2.3904,-2.3905,-2.3934,-2.3935,-2.3935,-2.3936,0,-2.3893,-2.3888,-2.3896,-2.3903,-2.3909,-2.3914,-2.3917,-2.3923,-2.391,-2.3918,-2.3928,-2.3934,-2.3944,-2.3953,-2.3959,-2.3959,-2.3945,-2.3944,-2.3949,-2.3952,-2.3955,-2.3953,-2.3879,-2.3942,-2.3941,-2.3941,-2.394,-2.394,-2.3935,-2.3947,-2.3947,-2.3956,-2.3957,-2.3961,-2.3971,-2.3967,-2.3976,-2.3983,-2.3975,-2.3988,-2.3989,-2.3996,-2.3997,-2.4007,-2.3997,-2.4004,-2.4006,-2.4008,-2.401,-2.3954,-2.4008,-2.4008,-2.4008,-2.4008,-2.4008,0,-2.399,-2.3989,-2.3998,-2.4003,-2.4011,-2.3998,-2.4001,-2.4009,-2.402,-2.4022,-2.4029,-2.4041,-2.4051,-2.4046,-2.4054,-2.4063,-2.4057,-2.4066,-2.4064,-2.4065,-2.4019,-2.4014,-2.407,-2.407,-2.407,-2.407,-2.407,-2.407,-2.4019,-2.4038,-2.4033,-2.4053,-2.4052,-2.4065,-2.4067,-2.4071,-2.4072,-2.4087,-2.4094,-2.4092,-2.4091,-2.4099,-2.4107,-2.4106,-2.4109,-2.412,-2.4116,-2.4074,-2.4068,-2.4062,-2.4057,-2.4121,-2.4121,-2.416,-2.4161,-2.4161]},{"header":{"parameterUnit":"m.s-1","parameterCategory":1,"la1":30.2991,"la2":30.254,"lo1":-89.0895,"lo2":-89.0444,"dy":0.0017,"dx":0.0017,"nx":28,"ny":28,"refTime":"2024-08-26T21:00:00:Z","depth":0,"parameterNumber":3,"parameterNumberName":"V-component_of_WINDS"},"data":[0,0,0,0,0,0,0,0,0,0,0,0,0,0,0,0,0,0,0,0,0,0,0,0,0,0,0,0,0,0,0,0,0,0,0,0,0,0,0,0,0,0,0,0,0,0,0,0,0,0,0,0,0,0,0,0,0,0,0.5316,0.5315,0,0.5284,0.5283,0.5283,0.529,0.5291,0.5291,0.5292,0.5256,0.5255,0.5253,0,0,0,0,0,0,0,0,0,0,0,0,0,0.5382,0.5381,0.5316,0.5315,0.5315,0.5284,0.5283,0.5283,0.529,0.5291,0.5291,0.5292,0.5257,0.5255,0.5253,0,0,0,0,0,0,0,0,0,0,0,0,0,0.5352,0.538,0.5316,0.5315,0.5315,0.5284,0.5283,0.5283,0.529,0.5291,0.5292,0.5293,0.5257,0.5255,0.5253,0.522,0,0,0.5246,0.5245,0,0,0,0,0,0,0,0,0.5353,0.5349,0.5315,0.5315,0.5314,0.5292,0.5293,0.5262,0.529,0.5299,0.5292,0.5293,0.5267,0.5264,0.5256,0.5219,0.5217,0.5246,0.5244,0.5243,0.5243,0,0,0,0,0,0,0,0.5355,0.5351,0.5303,0.5315,0.5314,0.5315,0.5312,0.5287,0.5278,0.5298,0.5299,0.5295,0.5267,0.5258,0.5255,0.5217,0.5246,0.5244,0.5242,0.5242,0.5152,0.5151,0,0,0,0,0,0,0.5358,0.5352,0.5304,0.5302,0.5337,0.5314,0.531,0.5298,0.5279,0.5277,0.5294,0.5295,0.5262,0.5258,0.5254,0.5215,0.5243,0.5241,0.524,0.5153,0.5151,0.515,0,0,0,0,0,0,0.536,0.5354,0.5305,0.5327,0.5321,0.5311,0.5298,0.5297,0.5288,0.5276,0.5274,0.5287,0.5262,0.5257,0.5229,0.5214,0.524,0.5238,0.5154,0.5152,0.5151,0.5136,0,0,0,0,0,0,0.5362,0.5354,0.5342,0.5327,0.532,0.5281,0.5297,0.5296,0.5284,0.5286,0.5268,0.5266,0.5263,0.5232,0.5227,0.5211,0.5236,0.5155,0.5153,0.5151,0.5138,0.5134,0.5131,0,0,0,0,0,0.5364,0.5339,0.5342,0.5336,0.5305,0.528,0.5276,0.5273,0.5283,0.5271,0.5263,0.5267,0.5217,0.5229,0.5223,0.5207,0.5156,0.5154,0.5151,0.5139,0.5135,0.5131,0,0,0,0,0,0,0.5351,0.5337,0.534,0.5309,0.5296,0.5282,0.5266,0.5269,0.5252,0.5254,0.525,0.5246,0.5217,0.5209,0.5224,0.5174,0.5188,0.5184,0.5181,0.5176,0.5173,0.5175,0.5235,0,0,0,0,0,0.5345,0.5327,0.5315,0.5289,0.5283,0.5276,0.5265,0.5264,0.525,0.5244,0.5234,0.522,0.5201,0.5188,0.517,0.5137,0.5133,0.5123,0.5119,0.5117,0.5113,0.5096,0.5091,0.5143,0.5143,0.5143,0,0,0.5332,0.5322,0.5311,0.5287,0.5277,0.5258,0.5271,0.525,0.5236,0.5241,0.5214,0.5206,0.5189,0.5159,0.5145,0.5151,0.5098,0.5114,0.5112,0.511,0.5093,0.5088,0.5083,0.5141,0.5141,0.5142,0,0,0.5298,0.5289,0.5267,0.5256,0.5241,0.5237,0.5231,0.5217,0.5212,0.5185,0.5188,0.5171,0.5138,0.5127,0.5117,0.508,0.5083,0.5074,0.5056,0.5039,0.5035,0.5031,0.5018,0.5013,0.5071,0.5071,0.5071,0,0.5284,0.5256,0.5254,0.5234,0.5223,0.5228,0.5205,0.5195,0.5174,0.5166,0.5174,0.5134,0.5123,0.509,0.5081,0.5072,0.5066,0.5075,0.5036,0.5032,0.5028,0.5016,0.5011,0.507,0.507,0.507,0.507,0,0.5239,0.5219,0.5203,0.5184,0.5172,0.515,0.5145,0.5132,0.5132,0.5127,0.5099,0.5087,0.5067,0.5059,0.5058,0.5026,0.503,0.5037,0.505,0.5023,0.5011,0.5006,0.5068,0.5069,0.5069,0.5069,0,0,0.5195,0.5177,0.5171,0.5163,0.5146,0.5131,0.511,0.5091,0.508,0.5066,0.5047,0.502,0.5026,0.5015,0.5013,0.4998,0.497,0.5006,0.5006,0.5,0.4933,0.4928,0.4923,0.4972,0.4971,0.497,0.4934,0,0.516,0.5123,0.5122,0.5088,0.507,0.5074,0.5056,0.5043,0.5038,0.5021,0.5015,0.4996,0.5005,0.4999,0.4984,0.4976,0.4956,0.4979,0.4954,0.4953,0.4958,0.4916,0.4911,0.4878,0.493,0.4929,0.4928,0,0.5114,0.51,0.5064,0.5051,0.5044,0.5027,0.501,0.4994,0.498,0.4977,0.4965,0.4966,0.4943,0.4958,0.4927,0.4942,0.4932,0.4927,0.4925,0.4923,0.4939,0.4912,0.4867,0.4862,0.4921,0.4922,0.4922,0,0.5087,0.5058,0.5033,0.5026,0.501,0.4998,0.4991,0.4978,0.4967,0.4952,0.4945,0.4927,0.4917,0.4902,0.4898,0.4909,0.4867,0.4881,0.4864,0.4864,0.4854,0.4855,0.4807,0.4848,0.4848,0.4848,0.4848,0,0.5047,0.5025,0.5021,0.5005,0.4981,0.4979,0.4955,0.4948,0.4937,0.492,0.4923,0.4907,0.4902,0.4885,0.4882,0.4857,0.4852,0.4849,0.4848,0.4848,0.4849,0.4841,0.4844,0.4847,0.4847,0.4848,0.4848,0,0.5012,0.5008,0.4981,0.4969,0.4965,0.4948,0.4937,0.4922,0.4917,0.4896,0.4891,0.4883,0.4863,0.4858,0.4834,0.4832,0.4802,0.4803,0.4807,0.4807,0.479,0.4791,0.4735,0.4727,0.4774,0.4773,0.4773,0,0.4987,0.4971,0.4957,0.4947,0.4939,0.4922,0.4911,0.4908,0.4897,0.488,0.4867,0.4848,0.4833,0.4801,0.4793,0.4774,0.4775,0.4757,0.4773,0.4774,0.4775,0.4776,0.4774,0.4754,0.4753,0.4753,0.4753,0,0.4944,0.4943,0.4927,0.4911,0.4898,0.4885,0.4873,0.4864,0.486,0.4846,0.4827,0.4815,0.4791,0.4772,0.4754,0.4745,0.4748,0.4748,0.4743,0.4743,0.4746,0.4744,0.4799,0.4749,0.4749,0.475,0.475,0.475,0.4913,0.4899,0.4887,0.487,0.486,0.4849,0.4834,0.4828,0.4812,0.4793,0.4793,0.4771,0.4758,0.4734,0.4725,0.4708,0.4714,0.4706,0.4705,0.4703,0.4701,0.4749,0.4705,0.4705,0.4705,0.4705,0.4705,0,0.487,0.4863,0.4847,0.483,0.4816,0.4821,0.4808,0.4796,0.4777,0.4765,0.475,0.4728,0.471,0.47,0.4682,0.467,0.4671,0.4665,0.4666,0.4664,0.4697,0.4704,0.4665,0.4665,0.4665,0.4665,0.4665,0.4665,0.4846,0.4822,0.482,0.4791,0.4784,0.4764,0.4756,0.4745,0.4735,0.4711,0.4696,0.469,0.4679,0.466,0.4643,0.4641,0.4634,0.4628,0.4626,0.4658,0.4662,0.4666,0.4671,0.4627,0.4626,0.4594,0.4594,0.4594]}]]